• Join FlightAware (Why Join?)
  • Login
  • US Flag 
12:18AM EDT


 

Airport Tracker/Info


-or-


 

Live Flight TrackerFlight Track Log ✈ UAL33 ✈ 07-Jun-2013 ✈ KIAH - KORD

Flight Track Log - Related Links

Times and Time Zones

All times are in EDT time to prevent confusion due to time zone crossing. See the UAL33 flight status page for this flight to view local times or setup timezone preferences in your user account.

Time Position Orientation Groundspeed Altitude Reporting Facility
EDT Latitude Longitude Course Direction KTS MPH feet Rate Location/Type
05:25PM 29.9496 -95.3440 167° South 173 199 1,100  Level FlightAware ADS-B
05:25PM 29.9445 -95.3469 206° Southwest 174 200 1,300 1,980 Climbing FlightAware ADS-B
05:25PM 29.9415 -95.3505 226° Southwest 176 203 1,500 1,980 Climbing FlightAware ADS-B
05:25PM 29.9399 -95.3534 238° Southwest 180 207 1,600 1,980 Climbing FlightAware ADS-B
05:25PM 29.9382 -95.3635 259° West 184 212 2,000 2,520 Climbing FlightAware ADS-B
05:25PM 29.9388 -95.3672 281° West 184 212 2,200 3,420 Climbing FlightAware ADS-B
05:25PM 29.9399 -95.3703 292° West 185 213 2,400 3,000 Climbing FlightAware ADS-B
05:25PM 29.9420 -95.3741 303° West 185 213 2,600 3,000 Climbing FlightAware ADS-B
05:25PM 29.9444 -95.3767 317° Northwest 185 213 2,800 3,000 Climbing FlightAware ADS-B
05:25PM 29.9473 -95.3788 328° Northwest 185 213 3,000 2,640 Climbing FlightAware ADS-B
05:25PM 29.9510 -95.3805 338° Northwest 187 215 3,200 2,220 Climbing FlightAware ADS-B
05:26PM 29.9537 -95.3812 347° North 192 221 3,300 1,980 Climbing FlightAware ADS-B
05:26PM 29.9567 -95.3817 352° North 197 227 3,400 1,500 Climbing FlightAware ADS-B
05:26PM 29.9616 -95.3823 354° North 207 238 3,500 1,380 Climbing FlightAware ADS-B
05:26PM 29.9774 -95.3837 356° North 237 273 3,900 1,020 Climbing FlightAware ADS-B
05:26PM 29.9860 -95.3844 356° North 255 293 3,900 60 Level FlightAware ADS-B
05:27PM 30.0412 -95.3810 North 268 308 4,000 60 Climbing FlightAware ADS-B
05:27PM 30.0599 -95.3792 North 267 307 4,000  Level FlightAware ADS-B
05:28PM 30.1166 -95.3743 North 267 307 4,000 360 Level FlightAware ADS-B
05:28PM 30.1540 -95.3708 North 267 307 4,500 1,800 Climbing FlightAware ADS-B
05:29PM 30.1700 -95.3705 357° North 266 306 5,300 3,720 Climbing FlightAware ADS-B
05:29PM 30.1876 -95.3751 345° North 269 310 6,200 3,660 Climbing FlightAware ADS-B
05:29PM 30.1911 -95.3765 341° North 269 310 6,400 3,600 Climbing FlightAware ADS-B
05:29PM 30.1989 -95.3810 332° Northwest 269 310 6,800 3,900 Climbing FlightAware ADS-B
05:29PM 30.2149 -95.3933 326° Northwest 269 310 7,900 3,900 Climbing FlightAware ADS-B
05:30PM 30.2475 -95.4191 326° Northwest 272 313 9,900 3,420 Climbing FlightAware ADS-B
05:31PM 30.3114 -95.4707 325° Northwest 287 330 13,200 2,760 Climbing FlightAware ADS-B
05:31PM 30.3463 -95.4991 325° Northwest 317 365 14,100 2,160 Climbing FlightAware ADS-B
05:32PM 30.4266 -95.5644 325° Northwest 360 414 16,500 2,460 Climbing FlightAware ADS-B
05:33PM 30.4693 -95.5988 325° Northwest 368 423 17,900 2,460 Climbing FlightAware ADS-B
05:33PM 30.5227 -95.6408 327° Northwest 386 444 19,300 1,620 Climbing FlightAware ADS-B
05:34PM 30.6155 -95.6945 335° Northwest 434 499 20,400 1,200 Climbing FlightAware ADS-B
05:35PM 30.7338 -95.7579 335° Northwest 475 547 21,700 1,560 Climbing FlightAware ADS-B
05:36PM 30.8584 -95.8248 335° Northwest 490 564 23,700 2,880 Climbing FlightAware ADS-B
05:37PM 30.9840 -95.8924 335° Northwest 455 524 27,700 3,480 Climbing FlightAware ADS-B
05:38PM 31.0464 -95.9259 335° Northwest 447 514 29,300 2,460 Climbing FlightAware ADS-B
05:38PM 31.0882 -95.9481 336° Northwest 448 516 30,000 1,860 Climbing FlightAware ADS-B
05:39PM 31.1241 -95.9642 339° North 453 521 30,600 1,680 Climbing FlightAware ADS-B
05:40PM 31.2997 -96.0091 349° North 466 536 32,900 1,440 Climbing FlightAware ADS-B
05:41PM 31.4309 -96.0396 349° North 476 548 34,200 1,440 Climbing FlightAware ADS-B
05:42PM 31.4972 -96.0551 349° North 473 544 35,100 2,280 Climbing FlightAware ADS-B
05:42PM 31.5752 -96.0730 349° North 451 519 36,800 1,440 Climbing FlightAware ADS-B
05:43PM 31.6556 -96.0927 348° North 467 537 37,000 120 Climbing FlightAware ADS-B
05:43PM 31.7263 -96.1096 349° North 471 542 37,000 600 Level FlightAware ADS-B
05:44PM 31.8291 -96.1336 349° North 482 555 37,800 1,080 Climbing FlightAware ADS-B
05:46PM 32.0710 -96.1900 349° North 458 527 40,000 960 Climbing FlightAware
05:47PM 32.2430 -96.2190 356° North 454 522 41,000 480 Climbing FlightAware
05:48PM 32.3110 -96.2190 360° North 460 529 41,000  Level FlightAware
05:49PM 32.4920 -96.2220 360° North 470 541 41,000  Level FlightAware
05:50PM 32.5880 -96.2230 359° North 469 540 41,000  Level FlightAware
05:51PM 32.6780 -96.2240 359° North 468 539 41,000  Level FlightAware
05:51PM 32.7660 -96.2250 359° North 473 544 41,000  Level FlightAware
05:52PM 32.8490 -96.2260 359° North 475 547 41,000  Level FlightAware
05:53PM 32.9530 -96.2270 360° North 476 548 41,000  Level FlightAware
05:54PM 33.0430 -96.2280 359° North 475 547 41,000  Level FlightAware
05:54PM 33.1410 -96.2290 360° North 473 544 41,000  Level FlightAware
05:55PM 33.2280 -96.2300 359° North 474 545 41,000  Level FlightAware
05:56PM 33.3230 -96.2320 359° North 475 547 41,000  Level FlightAware
05:56PM 33.4170 -96.2330 359° North 473 544 41,000  Level FlightAware
05:57PM 33.4920 -96.2330 360° North 470 541 41,000  Level FlightAware
05:57PM 33.5410 -96.2290 North 475 547 41,000  Level FlightAware
05:58PM 33.6250 -96.2040 14° North 483 556 41,000  Level FlightAware
05:59PM 33.7160 -96.1730 16° North 482 555 41,000  Level FlightAware
05:59PM 33.8110 -96.1410 16° North 481 554 41,000  Level FlightAware
06:00PM 33.8960 -96.1120 16° North 480 552 41,000  Level FlightAware
06:01PM 33.9810 -96.0830 16° North 479 551 41,000  Level FlightAware
06:02PM 34.0820 -96.0480 16° North 480 552 41,000  Level FlightAware
06:02PM 34.1670 -96.0190 16° North 480 552 41,000  Level FlightAware
06:03PM 34.2580 -95.9880 16° North 477 549 41,000  Level FlightAware
06:04PM 34.3450 -95.9580 16° North 475 547 41,000  Level FlightAware
06:04PM 34.4330 -95.9270 16° North 474 545 41,000  Level FlightAware
06:05PM 34.5250 -95.8950 16° North 477 549 41,000  Level FlightAware
06:06PM 34.6090 -95.8660 16° North 479 551 41,000  Level FlightAware
06:06PM 34.6910 -95.8380 16° North 482 555 41,000  Level FlightAware
06:07PM 34.7900 -95.8030 16° North 483 556 41,000  Level FlightAware
06:08PM 34.8990 -95.7420 25° Northeast 489 563 41,000  Level FlightAware
06:09PM 34.9670 -95.6460 49° Northeast 502 578 41,000  Level FlightAware
06:09PM 35.0330 -95.5710 43° Northeast 503 579 41,000  Level FlightAware
06:10PM 35.0850 -95.5110 43° Northeast 503 579 41,000  Level FlightAware
06:10PM 34.9180 -95.7020 223° Southwest 41,000  Level FlightAware
06:11PM 35.1810 -95.3960 44° Northeast 506 582 41,000  Level FlightAware
06:12PM 35.2750 -95.2850 44° Northeast 500 575 41,000  Level FlightAware
06:12PM 35.3490 -95.1980 44° Northeast 497 572 41,000  Level FlightAware
06:13PM 35.4150 -95.1200 44° Northeast 498 573 41,000  Level FlightAware
06:14PM 35.4710 -95.0540 44° Northeast 497 572 41,000  Level FlightAware
06:15PM 35.5540 -94.9550 44° Northeast 499 574 41,000  Level FlightAware
06:15PM 35.6310 -94.8640 44° Northeast 502 578 41,000  Level FlightAware
06:16PM 35.7220 -94.7550 44° Northeast 503 579 41,000  Level FlightAware
06:17PM 35.7930 -94.6700 44° Northeast 504 580 41,000  Level FlightAware
06:18PM 35.8630 -94.5860 44° Northeast 504 580 41,000  Level FlightAware
06:18PM 35.9330 -94.5020 44° Northeast 504 580 41,000  Level FlightAware
06:19PM 36.0010 -94.4190 45° Northeast 506 582 41,000  Level FlightAware
06:20PM 36.0700 -94.3360 44° Northeast 508 585 41,000  Level FlightAware
06:20PM 36.1390 -94.2530 44° Northeast 511 588 41,000  Level FlightAware
06:21PM 36.2100 -94.1660 45° Northeast 512 589 41,000  Level FlightAware
06:22PM 36.2950 -94.0880 36° Northeast 509 586 41,000  Level FlightAware
06:22PM 36.3770 -94.0310 29° Northeast 509 586 41,000  Level FlightAware
06:23PM 36.4590 -93.9730 30° Northeast 509 586 41,000  Level FlightAware
06:24PM 36.5480 -93.9100 30° Northeast 509 586 41,000  Level FlightAware
06:25PM 36.6390 -93.8460 29° Northeast 508 585 41,000  Level FlightAware
06:26PM 36.7520 -93.7660 30° Northeast 508 585 41,000  Level FlightAware
06:26PM 36.8350 -93.7070 30° Northeast 508 585 41,000  Level FlightAware
06:27PM 36.9200 -93.6460 30° Northeast 507 583 41,000  Level FlightAware
06:28PM 37.0090 -93.5830 29° Northeast 502 578 41,000  Level FlightAware
06:28PM 37.0930 -93.5230 30° Northeast 502 578 41,000  Level FlightAware
06:29PM 37.1670 -93.4700 30° Northeast 503 579 41,000  Level FlightAware
06:30PM 37.2520 -93.4090 30° Northeast 504 580 41,000  Level FlightAware
06:30PM 37.3440 -93.3410 30° Northeast 506 582 41,000  Level FlightAware
06:31PM 37.4290 -93.2670 35° Northeast 507 583 41,000  Level FlightAware
06:32PM 37.5060 -93.1960 36° Northeast 507 583 41,000  Level FlightAware
06:33PM 37.5840 -93.1230 37° Northeast 507 583 41,000  Level FlightAware
06:33PM 37.6600 -93.0530 36° Northeast 506 582 41,000  Level FlightAware
06:34PM 37.7420 -92.9770 36° Northeast 504 580 41,000  Level FlightAware
06:35PM 37.8250 -92.9000 36° Northeast 504 580 41,000  Level FlightAware
06:35PM 37.9030 -92.8270 36° Northeast 505 581 41,000  Level FlightAware
06:36PM 37.9780 -92.7560 37° Northeast 506 582 41,000  Level FlightAware
06:37PM 38.0580 -92.6810 36° Northeast 507 583 41,000  Level FlightAware
06:37PM 38.1360 -92.6070 37° Northeast 508 585 41,000  Level FlightAware
06:38PM 38.2190 -92.5280 37° Northeast 507 583 41,000  Level FlightAware
06:39PM 38.3210 -92.4330 36° Northeast 508 585 41,000  Level FlightAware
06:40PM 38.4270 -92.3310 37° Northeast 510 587 41,000  Level FlightAware
06:41PM 38.4910 -92.2710 36° Northeast 510 587 41,000  Level FlightAware
06:41PM 38.5730 -92.1920 37° Northeast 509 586 41,000  Level FlightAware
06:42PM 38.6550 -92.1130 37° Northeast 509 586 41,000  Level FlightAware
06:43PM 38.7200 -92.0500 37° Northeast 509 586 41,000  Level FlightAware
06:43PM 38.7730 -91.9990 37° Northeast 509 586 41,000  Level FlightAware
06:44PM 38.9080 -91.8680 37° Northeast 512 589 41,000  Level FlightAware
06:45PM 38.9860 -91.7920 37° Northeast 512 589 41,000  Level FlightAware
06:46PM 39.0830 -91.6980 37° Northeast 514 592 41,000  Level FlightAware
06:47PM 39.1670 -91.6160 37° Northeast 514 592 41,000  Level FlightAware
06:47PM 39.2340 -91.5510 37° Northeast 514 592 41,000  Level FlightAware
06:48PM 39.3140 -91.4720 37° Northeast 497 572 41,000  Level FlightAware
06:49PM 39.3930 -91.3940 37° Northeast 487 560 41,000 -600 Level FlightAware
06:49PM 39.4730 -91.3150 37° Northeast 472 543 40,200 -1,080 Descending FlightAware
06:50PM 39.5320 -91.2560 38° Northeast 465 535 39,700 -480 Descending FlightAware
06:51PM 39.6010 -91.1880 37° Northeast 465 535 39,600 -1,140 Descending FlightAware
06:51PM 39.6870 -91.1020 38° Northeast 460 529 38,000 -1,200 Descending FlightAware
06:52PM 39.7480 -91.0410 38° Northeast 461 531 38,000  Level FlightAware
06:53PM 39.8220 -90.9660 38° Northeast 461 531 38,000 -420 Level FlightAware
06:54PM 39.9270 -90.8610 37° Northeast 478 550 37,300 -960 Descending FlightAware
06:54PM 39.9910 -90.7960 38° Northeast 483 556 36,500 -1,620 Descending FlightAware
06:55PM 40.0710 -90.7150 38° Northeast 479 551 35,100 -1,980 Descending FlightAware
06:56PM 40.1430 -90.6420 38° Northeast 474 545 33,700 -1,620 Descending FlightAware
06:57PM 40.2080 -90.5760 38° Northeast 468 539 33,000 -540 Descending FlightAware
06:57PM 40.2810 -90.4860 43° Northeast 473 544 33,000  Level FlightAware
06:58PM 40.3450 -90.3970 47° Northeast 478 550 33,000  Level FlightAware
06:59PM 40.4060 -90.3110 47° Northeast 472 543 33,000  Level FlightAware
06:59PM 40.4730 -90.2160 47° Northeast 484 557 33,000  Level FlightAware
07:00PM 40.5370 -90.1250 47° Northeast 493 567 33,000 -960 Level FlightAware
07:01PM 40.5990 -90.0380 47° Northeast 493 567 31,700 -2,100 Descending FlightAware
07:01PM 40.6660 -89.9420 47° Northeast 481 554 30,100 -2,160 Descending FlightAware
07:02PM 40.7320 -89.8480 47° Northeast 474 545 28,600 -2,040 Descending FlightAware
07:03PM 40.7890 -89.7660 47° Northeast 471 542 27,300 -1,920 Descending FlightAware
07:04PM 40.8500 -89.6790 47° Northeast 469 540 26,000 -1,980 Descending FlightAware
07:04PM 40.9110 -89.5910 47° Northeast 467 537 24,600 -1,440 Descending FlightAware
07:05PM 40.9750 -89.4980 48° Northeast 468 539 24,000 -480 Descending FlightAware
07:06PM 41.0300 -89.4170 48° Northeast 467 537 24,000 -120 Level FlightAware
07:06PM 41.0860 -89.3310 49° Northeast 468 539 23,900 -720 Descending FlightAware
07:07PM 41.1510 -89.2250 51° Northeast 462 532 23,000 -1,560 Descending FlightAware
07:08PM 41.2040 -89.1380 51° Northeast 456 525 21,700 -1,860 Descending FlightAware
07:08PM 41.2600 -89.0450 51° Northeast 450 518 20,500 -1,680 Descending FlightAware
07:09PM 41.3110 -88.9610 51° Northeast 443 510 19,400 -2,520 Descending FlightAware
07:10PM 41.3710 -88.8620 51° Northeast 450 518 17,000 -3,420 Descending FlightAware
07:11PM 41.4210 -88.7790 51° Northeast 441 507 14,700 -3,300 Descending FlightAware
07:11PM 41.4720 -88.6940 51° Northeast 403 464 12,500 -2,520 Descending FlightAware
07:12PM 41.5190 -88.6150 52° Northeast 346 398 11,100 -1,080 Descending FlightAware
07:13PM 41.5600 -88.5460 52° Northeast 306 352 11,000 -300 Descending FlightAware
07:13PM 41.5940 -88.4890 51° Northeast 292 336 10,700 -840 Descending FlightAware
07:14PM 41.6320 -88.4270 51° Northeast 291 335 9,900 -1,200 Descending FlightAware
07:15PM 41.6620 -88.4010 33° Northeast 281 323 9,300 -1,440 Descending FlightAware
07:15PM 41.6970 -88.3940 North 280 322 8,600 -1,320 Descending FlightAware
07:15PM 41.7340 -88.3870 North 275 316 8,100 -660 Descending FlightAware
07:16PM 41.7670 -88.3800 North 274 315 8,000 -120 Descending FlightAware
07:16PM 41.8030 -88.3740 North 260 299 8,000  Level FlightAware
07:17PM 41.8330 -88.3680 North 244 281 8,000  Level FlightAware
07:17PM 41.8480 -88.3650 North 233 268 8,000  Level FlightAware
07:18PM 41.8750 -88.3610 North 205 236 8,000  Level FlightAware
07:18PM 41.8940 -88.3790 325° Northwest 185 213 8,000  Level FlightAware
07:18PM 41.8950 -88.3890 278° West 189 217 8,000 -420 Level FlightAware
07:19PM 41.8940 -88.4160 267° West 191 220 7,800 -840 Descending FlightAware
07:19PM 41.8910 -88.4490 263° West 190 219 7,300 -960 Descending FlightAware
07:19PM 41.8900 -88.4600 263° West 191 220 7,200 -480 Descending FlightAware
07:20PM 41.9020 -88.4890 299° West 180 207 7,000 -300 Descending FlightAware
07:20PM 41.9140 -88.4920 349° North 180 207 7,000  Level FlightAware
07:20PM 41.9350 -88.4780 26° Northeast 183 211 7,000  Level FlightAware
07:21PM 41.9440 -88.4470 69° East 185 213 7,000 -300 Level FlightAware
07:21PM 41.9470 -88.4350 71° East 184 212 6,800 -900 Descending FlightAware
07:22PM 41.9550 -88.4050 70° East 182 209 6,400 -900 Descending FlightAware
07:22PM 41.9630 -88.3780 68° East 181 208 6,000 -1,020 Descending FlightAware
07:22PM 41.9670 -88.3610 72° East 180 207 5,700 -900 Descending FlightAware
07:23PM 41.9670 -88.3340 90° East 177 204 5,400 -780 Descending FlightAware
07:23PM 41.9680 -88.2990 88° East 171 197 5,000 -420 Descending FlightAware
07:24PM 41.9680 -88.2690 90° East 172 198 5,000  Level FlightAware
07:24PM 41.9680 -88.2380 90° East 171 197 5,000 -240 Level FlightAware
07:25PM 41.9680 -88.2090 90° East 175 201 4,800 -780 Descending FlightAware
07:25PM 41.9680 -88.1940 90° East 177 204 4,500 -1,080 Descending FlightAware
07:25PM 41.9680 -88.1640 90° East 177 204 4,100 -960 Descending FlightAware
07:26PM 41.9680 -88.1330 90° East 175 201 3,600 -1,020 Descending FlightAware
07:26PM 41.9690 -88.0940 88° East 164 189 3,000 -900 Descending FlightAware
07:27PM 41.9690 -88.0640 90° East 161 185 2,600 -840 Descending FlightAware
07:27PM 41.9690 -88.0360 90° East 160 184 2,200 -840 Descending FlightAware
07:28PM 41.9690 -87.9930 90° East 146 168 1,600 -780 Descending FlightAware
07:29PM 41.9690 -87.9580 90° East 143 165 1,100 -780 Descending FlightAware
07:29PM 41.9690 -87.9440 90° East 143 165 900 -780 Descending FlightAware
07:31PM 41.9700 -87.8980 88° East 15 17 -480 Descending FlightAware